Location: Unspecified
(52.4292°N, 19.3359°E)
Time: 23:25:08
(UTC+02:00)

SR - Pass Details

Date: 04 June 2024
Orbit: 580 x 858 km, 66.7° (Epoch: 12 June)

Event Time Altitude Azimuth Distance (km) Brightness Sun altitude
Rises 16:19:04 0° 228° (SW) 3,151 ? 39.1°
Reaches altitude 10° 16:21:33 10° 232° (SW) 2,186 ? 38.8°
Maximum altitude 16:26:27 62° 313° (NW) 759 ? 38.0°
Drops below altitude 10° 16:30:59 10° 35° (NE) 2,028 ? 37.3°
Sets 16:33:13 0° 39° (NE) 2,905 ? 37.0°
